Weather History for Lexington, NE

Change the Weather History Date:

Friday, June 14, 2013

  Actual Average Record
Temperature  
Mean Temperature 80 °F -  
Max Temperature 95 °F 78 °F 98 °F (2006)
Min Temperature 66 °F 54 °F 44 °F (2002)
Cooling Degree Days 16    
Growing Degree Days 30 (Base 50)    
Moisture  
Dew Point 61 °F    
Average Humidity 57    
Maximum Humidity 82    
Minimum Humidity 30    
Precipitation  
Precipitation 0.01 in - - ()
Sea Level Pressure  
Sea Level Pressure 29.86 in    
Wind  
Wind Speed 13 mph (South)    
Max Wind Speed 34 mph    
Max Gust Speed 51 mph    
Visibility 10 miles    
Events Rain , Thunderstorm    
Averages and records for this station are not official NWS values.
T = Trace of Precipitation, MM = Missing Value Source: NWS Daily Summary

Daily Weather History Graph

Daily Weather History Graph

Search for Another Location

Airport:

Trip Planner

Search our weather history database for the weather conditions in past years. The results will help you decide how hot, cold, wet, or windy it might be!

Date:

Astronomy

Jun. 14, 2013 Rise Set
Actual Time 6:07 AM CDT 9:12 PM CDT
Civil Twilight 5:33 AM CDT 9:45 PM CDT
Nautical Twilight 4:51 AM CDT 10:28 PM CDT
Astronomical Twilight 4:00 AM CDT 11:18 PM CDT
Moon 11:45 AM CDT (6/14) 12:17 AM CDT (6/14)
Length of Visible Light 16h 11m
Length of Day
15h 04m
Waxing Crescent, 30% of the Moon is Illuminated
Jun 14
Waxing Crescent
Jun 16
First Quarter
Jun 23
Full
Jun 29
Last Quarter
Jul 8
New

Hourly Weather History & Observations

Time (CDT) Temp. Heat Index Dew Point Humidity Pressure Visibility Wind Dir Wind Speed Gust Speed Precip Events Conditions
12:15 AM 71.1 °F - 58.3 °F 64% 30.03 in 10.0 mi SE 8.1 mph - N/A   Clear
12:35 AM 70.9 °F - 58.5 °F 65% 30.07 in 10.0 mi South 9.2 mph - N/A Thunderstorm Thunderstorm
12:55 AM 70.2 °F - 59.0 °F 68% 30.04 in 10.0 mi SSE 9.2 mph - N/A   Clear
1:15 AM 68.7 °F - 59.9 °F 73% 30.02 in 10.0 mi East 9.2 mph - N/A Rain Light Rain
1:35 AM 68.2 °F - 61.0 °F 78% 29.98 in 10.0 mi East 16.1 mph - N/A Rain Light Rain
1:55 AM 68.4 °F - 61.3 °F 78% 29.92 in 10.0 mi SE 23.0 mph 28.8 mph N/A   Clear
2:15 AM 70.2 °F - 60.6 °F 72% 29.86 in 10.0 mi SE 12.7 mph 25.3 mph N/A   Clear
2:35 AM 70.5 °F - 60.8 °F 71% 29.85 in 10.0 mi South 28.8 mph 33.4 mph N/A Thunderstorm Clear
2:55 AM 72.5 °F - 61.5 °F 68% 29.86 in 10.0 mi South 34.5 mph 50.6 mph N/A Thunderstorm Thunderstorm
3:15 AM 71.1 °F - 62.6 °F 75% 29.88 in 10.0 mi South 28.8 mph 36.8 mph N/A Thunderstorm Thunderstorm
3:35 AM 70.3 °F - 63.1 °F 78% 29.96 in 10.0 mi West 17.3 mph 24.2 mph N/A   Light Drizzle
3:55 AM 68.9 °F - 62.6 °F 80% 29.90 in 10.0 mi South 16.1 mph 27.6 mph N/A Rain , Thunderstorm Light Thunderstorms and Rain
4:15 AM 67.1 °F - 61.5 °F 82% 29.90 in 10.0 mi SSW 19.6 mph 26.5 mph N/A Thunderstorm Clear
4:35 AM 75.9 °F - 54.1 °F 47% 29.91 in 10.0 mi WSW 16.1 mph 21.9 mph N/A Rain , Thunderstorm Light Thunderstorms and Rain
4:55 AM 75.0 °F - 56.5 °F 52% 29.87 in 10.0 mi SSE 5.8 mph 24.2 mph N/A Rain , Thunderstorm Light Thunderstorms and Rain
5:15 AM 72.1 °F - 58.5 °F 62% 29.88 in 10.0 mi SSE 5.8 mph 19.6 mph N/A Rain , Thunderstorm Light Thunderstorms and Rain
5:35 AM 67.8 °F - 60.1 °F 76% 29.84 in 10.0 mi SSE 20.7 mph 26.5 mph N/A Rain , Thunderstorm Light Thunderstorms and Rain
5:55 AM 66.7 °F - 60.1 °F 79% 29.85 in 10.0 mi South 19.6 mph 23.0 mph 0.01 in Rain , Thunderstorm Heavy Thunderstorms and Rain
6:15 AM 68.7 °F - 59.0 °F 71% 29.83 in 10.0 mi SSE 19.6 mph 24.2 mph N/A Rain Light Rain
6:35 AM 69.6 °F - 58.5 °F 68% 29.83 in 10.0 mi ENE 3.5 mph - N/A   Scattered Clouds
6:55 AM 70.5 °F - 57.9 °F 64% 29.83 in 10.0 mi South 20.7 mph 26.5 mph N/A   Clear
7:15 AM 71.2 °F - 57.9 °F 63% 29.83 in 10.0 mi SSE 15.0 mph 24.2 mph N/A Thunderstorm Clear
7:35 AM 72.1 °F - 58.8 °F 63% 29.83 in 10.0 mi South 16.1 mph 19.6 mph N/A   Clear
7:55 AM 73.6 °F - 60.8 °F 64% 29.83 in 10.0 mi South 15.0 mph 21.9 mph N/A   Clear
8:15 AM 76.6 °F - 63.5 °F 64% 29.83 in 10.0 mi SSE 15.0 mph - N/A   Clear
8:35 AM 76.6 °F - 65.3 °F 68% 29.83 in 10.0 mi South 16.1 mph - N/A   Clear
8:55 AM 76.5 °F - 66.2 °F 70% 29.83 in 10.0 mi SSE 16.1 mph 20.7 mph N/A   Clear
9:15 AM 77.5 °F - 67.1 °F 70% 29.83 in 10.0 mi SSE 19.6 mph 26.5 mph N/A   Clear
9:35 AM 77.7 °F - 66.9 °F 69% 29.84 in 10.0 mi South 17.3 mph 27.6 mph N/A   Clear
9:55 AM 76.3 °F - 66.4 °F 71% 29.85 in 10.0 mi South 16.1 mph 29.9 mph N/A   Clear
10:15 AM 76.8 °F - 66.4 °F 70% 29.85 in 10.0 mi South 11.5 mph - N/A   Clear
10:35 AM 79.2 °F - 66.7 °F 66% 29.85 in 10.0 mi South 12.7 mph - N/A   Clear
10:55 AM 81.0 °F 83.2 °F 66.6 °F 61% 29.85 in 10.0 mi South 13.8 mph 23.0 mph N/A   Clear
11:15 AM 83.3 °F 85.7 °F 66.6 °F 57% 29.85 in 10.0 mi SSW 17.3 mph 26.5 mph N/A   Clear
11:35 AM 83.3 °F 85.3 °F 65.7 °F 55% 29.85 in 10.0 mi SSW 20.7 mph 27.6 mph N/A   Clear
11:55 AM 85.5 °F 87.9 °F 66.4 °F 53% 29.84 in 10.0 mi SSW 19.6 mph 28.8 mph N/A   Clear
12:15 PM 86.9 °F 89.6 °F 66.6 °F 51% 29.84 in 10.0 mi SSW 18.4 mph 25.3 mph N/A   Clear
12:35 PM 88.3 °F 90.9 °F 66.6 °F 48% 29.84 in 10.0 mi SSW 17.3 mph 26.5 mph N/A   Clear
12:55 PM 92.1 °F 94.8 °F 66.0 °F 42% 29.84 in 10.0 mi SSW 19.6 mph 24.2 mph N/A   Clear
1:15 PM 90.9 °F 92.7 °F 64.8 °F 42% 29.84 in 10.0 mi SW 16.1 mph - N/A   Clear
1:35 PM 91.6 °F 93.1 °F 64.2 °F 40% 29.84 in 10.0 mi SW 10.4 mph - N/A   Clear
1:55 PM 92.5 °F 94.1 °F 64.2 °F 39% 29.83 in 10.0 mi WSW 6.9 mph - N/A   Clear
2:15 PM 93.9 °F 94.8 °F 62.6 °F 35% 29.83 in 10.0 mi West 8.1 mph - N/A   Clear
2:35 PM 94.1 °F 94.2 °F 61.2 °F 33% 29.82 in 10.0 mi WNW 10.4 mph - N/A   Clear
2:55 PM 94.5 °F 94.4 °F 60.3 °F 32% 29.81 in 10.0 mi NW 12.7 mph - N/A   Clear
3:15 PM 93.2 °F 92.6 °F 59.0 °F 32% 29.79 in 10.0 mi NW 11.5 mph - N/A   Clear
3:35 PM 95.2 °F 95.1 °F 60.3 °F 31% 29.78 in 10.0 mi NW 12.7 mph - N/A   Clear
3:55 PM 94.6 °F 94.3 °F 59.5 °F 31% 29.80 in 10.0 mi NW 11.5 mph 17.3 mph N/A   Clear
4:15 PM 94.6 °F 93.9 °F 58.5 °F 30% 29.81 in 10.0 mi NW 10.4 mph 17.3 mph N/A   Clear
4:35 PM 91.9 °F 91.2 °F 59.4 °F 33% 29.80 in 10.0 mi NNW 11.5 mph - N/A   Clear
4:55 PM 90.0 °F 89.1 °F 59.0 °F 35% 29.79 in 10.0 mi North 11.5 mph - N/A   Clear
5:15 PM 89.2 °F 88.2 °F 58.5 °F 35% 29.80 in 10.0 mi North 9.2 mph - N/A   Clear
5:35 PM 88.9 °F 88.8 °F 60.8 °F 39% 29.81 in 10.0 mi NNE 4.6 mph - N/A   Clear
5:55 PM 87.1 °F 88.6 °F 64.6 °F 47% 29.83 in 10.0 mi SSE 8.1 mph - N/A   Clear
6:15 PM 87.4 °F 88.5 °F 63.5 °F 45% 29.83 in 10.0 mi SSE 17.3 mph 25.3 mph N/A   Clear
6:35 PM 81.0 °F 80.8 °F 56.1 °F 42% 29.85 in 10.0 mi ESE 17.3 mph 21.9 mph N/A   Clear
6:55 PM 77.9 °F - 56.3 °F 47% 29.85 in 10.0 mi East 4.6 mph - N/A   Clear
7:15 PM 79.2 °F - 56.1 °F 45% 29.83 in 10.0 mi SE 5.8 mph - N/A   Clear
7:35 PM 80.6 °F 80.6 °F 56.5 °F 43% 29.82 in 10.0 mi Calm Calm - N/A   Clear
7:55 PM 80.8 °F 80.8 °F 56.7 °F 43% 29.82 in 10.0 mi North 4.6 mph - N/A   Clear
8:15 PM 79.3 °F - 58.6 °F 49% 29.82 in 10.0 mi South 5.8 mph - N/A   Clear
8:35 PM 77.0 °F - 59.9 °F 55% 29.83 in 10.0 mi Calm Calm - N/A   Clear
8:55 PM 73.8 °F - 61.5 °F 65% 29.83 in 10.0 mi Calm Calm - N/A   Clear
9:15 PM 72.1 °F - 61.2 °F 68% 29.83 in 7.0 mi NNW 8.1 mph - N/A   Clear
9:35 PM 74.8 °F - 59.9 °F 60% 29.81 in 10.0 mi North 12.7 mph - N/A   Clear
9:55 PM 73.9 °F - 59.4 °F 60% 29.82 in 10.0 mi NW 6.9 mph - N/A   Clear
10:15 PM 72.1 °F - 59.9 °F 65% 29.83 in 10.0 mi NW 5.8 mph - N/A   Clear
10:35 PM 69.3 °F - 59.7 °F 72% 29.85 in 10.0 mi SE 3.5 mph - N/A   Clear
10:55 PM 70.3 °F - 59.9 °F 69% 29.88 in 10.0 mi SSE 9.2 mph - N/A   Clear
11:15 PM 75.6 °F - 59.7 °F 58% 29.93 in 10.0 mi South 10.4 mph - N/A   Clear
11:35 PM 75.0 °F - 60.1 °F 60% 29.92 in 10.0 mi NE 8.1 mph - N/A   Clear
11:55 PM 73.4 °F - 60.4 °F 64% 29.93 in 10.0 mi SSE 4.6 mph - N/A   Clear